Location: Poprad
(0.0000°N, 20.3000°E)
Time: 17:20:21
(UTC+02:00)

Daily predictions for brighter satellites

Satellite Brightness Start Highest point End
(mag) Time Altitude Azimuth Time Altitude Azimuth Time Altitude Azimuth
Ariane H10-3 4.5 18:39:47 10° WSW 18:45:21 71° S 19:19:06 13° E
CORIOLIS 4.4 18:44:19 10° S 18:49:46 80° WSW 18:55:12 10° NNW
Cosmos 1818 3.6 18:47:15 10° NNW 18:52:38 86° ENE 18:58:00 10° SSE
CZ-4B R/B 3.5 18:52:54 10° S 18:57:12 71° W 19:01:38 10° NNW
YAOGAN 1 4.4 18:57:59 10° E 18:59:12 11° ENE 19:00:25 10° ENE
Intelsat 5-3 Rocket 3.4 18:58:14 10° S 18:59:18 12° SSE 19:00:19 10° SE
SL-08 RB Rocket 3.7 19:00:41 10° S 19:05:10 85° WSW 19:09:40 10° NNW
Cosmos 2369 3.7 19:01:52 10° SSW 19:07:36 80° ESE 19:13:18 10° NNE
SL-8 R/B 4.5 19:03:32 10° NW 19:08:14 55° SW 19:12:57 10° SSE
CZ-4B DEB 4.3 19:03:47 10° SSE 19:09:05 52° ENE 19:14:20 10° N
Cosmos 1980 Rocket 2.2 19:06:20 10° SSW 19:12:01 81° ESE 19:17:40 10° NNE
Cosmos 1850 Rocket 4.0 19:08:03 10° S 19:13:07 56° ESE 19:18:09 10° NNE
Cosmos 2278 4.1 19:11:45 10° S 19:17:03 39° ESE 19:22:18 10° NE
ARGOS 4.4 19:12:00 10° S 19:17:05 45° WSW 19:22:09 10° NNW
Cosmos 1733 3.4 19:13:45 10° SSE 19:17:24 45° E 19:21:01 10° NNE
ARGOS Delta rocket 4.5 19:14:07 10° N 19:19:07 63° W 19:23:51 10° SSW
Lacrosse 5 rocket 2.1 19:15:57 10° NW 19:19:26 45° WSW 19:22:52 10° SSE
CZ-4 R/B 4.4 19:16:04 10° SSE 19:20:08 61° ENE 19:24:11 10° N
Cosmos 405 Rocket 3.7 19:18:13 10° NNW 19:22:02 50° W 19:25:49 10° S
GPS 2-17 Rocket1 3.3 19:17:57 10° WSW 19:22:12 59° NNW 19:25:25 17° NE
SL-16 R/B 3.6 19:20:01 10° SE 19:23:23 17° ESE 19:23:23 17° ESE
Aurora 2 Rocket 4.2 19:21:40 10° W 19:25:12 23° SSW 19:28:06 10° SSE
Cosmos 1842 3.2 19:23:48 10° N 19:27:38 88° W 19:31:31 10° S
Meteor 2-15 4.4 19:21:51 10° N 19:27:55 67° E 19:34:01 10° SSE
SL-27 R/B 2.3 19:25:33 10° NNW 19:28:50 81° WSW 19:32:05 10° S
Cosmos 1726 2.6 19:29:32 10° SSE 19:32:50 33° E 19:33:18 32° ENE
Cosmos 2297 Rocket 3.9 19:30:06 10° NE 19:31:29 14° NE 19:31:29 14° NE
Cosmos 1707 2.8 19:32:44 10° N 19:36:23 49° E 19:40:05 10° SSE
ARIANE 5 R/B 3.0 19:31:43 10° W 19:36:47 82° N 19:38:12 33° ENE
ATLAS 2A CENTAUR R/B 1.6 19:34:24 10° NW 19:37:39 28° NNE 19:37:40 28° NNE
Cosmos 1741 Rocket 4.2 19:33:24 10° SSW 19:38:42 76° WNW 19:43:59 10° N
ARIANE 5 R/B 4.2 19:29:40 10° W 19:38:55 42° S 19:41:14 22° SE
HETE-2 4.5 19:34:49 10° W 19:39:01 87° S 19:40:32 39° E
Meteor 2-14 Rocket 4.4 19:34:13 10° S 19:40:15 62° E 19:46:14 10° NNE
Cosmos 1733 Rocket 3.3 19:38:27 10° S 19:42:47 70° W 19:47:08 10° N
Ariane H10 2.8 19:35:59 10° W 19:43:49 59° S 19:44:50 39° ESE
Cosmos 1703 Rocket 4.4 19:39:48 10° NNW 19:44:00 50° W 19:48:14 10° S
OAO 3 Rocket 4.2 19:39:40 10° WNW 19:44:10 42° SW 19:47:28 17° SSE
CZ-4 R/B 3.8 19:48:20 11° NNE 19:48:20 11° NNE 19:48:28 10° NNE
Okean 3 4.4 19:41:23 10° NNW 19:45:27 49° W 19:49:31 10° S
Meteor 2-15 Rocket 4.3 19:41:13 10° N 19:47:19 75° E 19:53:27 10° S
SWIFT 4.2 19:46:26 10° SSW 19:49:15 17° SSE 19:49:20 17° SSE
Cosmos 1805 4.1 19:48:45 10° SSW 19:52:29 49° W 19:56:12 10° N
Ariane H10 3.9 19:45:07 10° W 19:53:02 36° SSW 19:54:01 30° SSE
NOAA 15 4.5 19:49:41 10° SSE 19:54:52 62° ENE 20:00:00 10° N
Nadezhda 4 Rocket 3.9 19:50:15 10° S 19:56:28 66° E 20:02:42 10° NNE
IRIDIUM 106 4.2 19:53:15 10° S 19:58:26 67° E 20:03:35 10° N
Okean O Rocket 1.9 20:00:00 48° NNE 20:00:00 48° NNE 20:03:18 10° N
CZ-4C R/B 3.4 19:56:33 10° N 20:04:46 46° ENE 20:07:02 39° ESE
BLOCK DM-SL R/B 3.1 20:04:06 10° W 20:04:49 17° W 20:04:49 17° W
Ariane H10-3 3.6 20:02:52 10° W 20:06:02 36° NW 20:06:02 36° NW
In-Cosmos 22 4.4 20:04:50 10° NNW 20:10:03 66° W 20:15:21 10° S
ATLAS 5 CENTAUR R/B 4.1 19:22:29 10° WSW 20:10:09 52° NNW 20:17:02 23° NE
Meteor 2-16 Rocket 4.3 20:05:30 10° S 20:11:31 65° E 20:13:34 42° NNE
GPS 2-12 Rocket1 3.4 20:12:35 10° WNW 20:16:28 62° WSW 20:16:28 62° WSW
ARIANE 3 DEB 4.1 20:21:43 10° WSW 20:25:59 40° WSW 20:25:59 40° WSW
ATLAS 3B R/B 3.0 20:22:38 10° NNW 20:30:19 77° WSW 20:34:17 31° SSE
YAOGAN 1 4.4 20:31:17 10° SSW 20:35:00 29° WSW 20:38:43 10° NW
USA 267 3.2 20:40:14 83° WNW 20:40:14 83° WNW 20:46:33 10° NW
Mugunghwa Rocket 4.2 20:35:44 10° WNW 20:43:05 79° NW 20:43:05 79° NW
Cosmos 2322 Rocket 4.1 20:37:56 10° SSW 20:39:25 19° SSW 20:39:25 19° SSW
ARIANE 5 DEB (SYLDA) 4.4 20:33:36 10° W 20:45:22 59° SSW 20:45:22 59° SSW
ARIANE 5 DEB (SYLDA) 4.0 20:34:20 10° W 21:03:31 80° S 21:03:31 80° S
SL-16 R/B 4.0 21:02:15 10° SW 21:05:22 27° WSW 21:05:22 27° WSW
